Regional Weather Roundup
Issued by NWS

Home | Current Version | Previous Version | Text Only | Print | Product List | Glossary On
Versions: 1 2 3 4 5 6 7 8 9 10 11 12 13 14 15 16 17 18 19 20 21 22 23 24 25 26 27 28 29 30 31 32 33 34 35 36 37 38 39 40 41 42 43 44 45 46 47 48 49 50
000
ASUS44 KFWD 260515
RWRTX
NORTH TEXAS HOURLY WEATHER ROUNDUP
NATIONAL WEATHER SERVICE FORT WORTH TX
1200 AM CDT SUN OCT 26 2014

NOTE: "FAIR" INDICATES FEW OR NO CLOUDS BELOW 12,000 FEET WITH NO
SIGNIFICANT WEATHER AND/OR OBSTRUCTIONS TO VISIBILITY.

TXZ118-119-260600-
DALLAS/FORT WORTH METROPLEX

CITY           SKY/WX    TMP DP  RH WIND       PRES   REMARKS
DFW AIRPORT    CLEAR     73  60  63 S10       30.04S
DALLAS LOVE    CLEAR     73  60  63 S8        30.04F
FTW MEACHAM    CLEAR     74  60  61 S10       30.03F
DAL-EXECUTIVE  CLEAR     74  59  59 VRB6      30.04F
FTW-ALLIANCE   CLEAR     70  60  70 S3        30.04S
FTW-NAS-JRB    CLEAR     74  59  59 S8        30.08F
FTW-SPINKS     CLEAR     72  59  64 S8        30.07S
ARLINGTON      CLEAR     71  59  65 S6        30.05F
GRAND PRAIRIE  CLEAR     73  61  67 S5        30.06F
ADDISON        CLEAR     76  63  62 S7        30.06F
MESQUITE       CLEAR     65  61  85 S6        30.05F
LANCASTER      CLEAR     68  58  70 CALM      30.06F
$$

TXZ091>094-102>105-117-120-121-131>134-260600-
NORTH CENTRAL TEXAS

CITY           SKY/WX    TMP DP  RH WIND       PRES   REMARKS
SHRMAN/DENISON CLEAR     71  63  75 S9        30.04F
GAINESVILLE    CLEAR     68  59  74 SE3       30.05F
BOWIE          CLEAR     69  60  73 S5        30.04S
BRIDGEPORT     CLEAR     74  60  62 S9        30.05F
DECATUR        CLEAR     73  58  58 S12       30.04F
DENTON         CLEAR     69  60  73 SE8       30.03F
MCKINNEY       CLEAR     66  61  84 S7        30.04F
GREENVILLE     CLEAR     64  59  82 S6        30.05F
ROCKWALL       CLEAR     71  62  73 S10       30.04F
TERRELL        CLEAR     69  63  81 S5        30.06F
WAXAHACHIE     CLEAR     69  60  73 S5        30.07F
CLEBURNE       CLEAR     70  63  78 S7        30.08S
GRANBURY       CLEAR     73  59  62 SE6       30.06F
$$

TXZ083>090-098>101-113>116-127>130-139>142-154-155-260600-
WESTERN NORTH TEXAS

CITY           SKY/WX    TMP DP  RH WIND       PRES   REMARKS
WICHITA FALLS  CLEAR     68  56  65 S9        30.00F
WF-KICKAPOO    CLEAR     65  55  70 S7        30.02S
VERNON         CLEAR     68  50  52 SW7       30.01F
ABILENE        CLEAR     74  54  49 S12       30.07F
ABILENE-DYESS  CLEAR     64  52  63 S8        30.06F
BRECKENRIDGE   CLEAR     75  55  49 S9        30.05S
GRAHAM         CLEAR     73  58  60 S5        30.02F
MINERAL WELLS  CLEAR     67  59  75 SE12      30.03F
STEPHENVILLE   CLEAR     66  58  74 S3        30.10S
COMANCHE       CLEAR     67  57  71 S6        30.08F
BROWNWOOD      PTCLDY    68  57  68 S3        30.08F
COLEMAN        CLEAR     68  56  64 S6        30.09S
BRADY          CLEAR     68  54  60 S5        30.10F
$$

TXZ143>147-156>162-174-175-260600-
CENTRAL TEXAS

CITY           SKY/WX    TMP DP  RH WIND       PRES   REMARKS
WACO           CLEAR     71  61  70 S8        30.07F
WACO-MCGREGOR  CLEAR     68  55  64 S6        30.08F
HILLSBORO      CLEAR     73  59  62 S8        30.07S
CORSICANA      CLEAR     68  61  78 S7        30.08S
MEXIA          CLEAR     66  61  85 CALM      30.07F
HEARNE         HAZE      67  61  82 SE3       30.09F VSB 1
CAMERON        CLEAR     69  61  74 S7        30.08S
TEMPLE         CLEAR     66  55  68 S8        30.07F
KILLEEN        CLEAR     66  58  74 S6        30.09F
KILLEEN-SKYLRK CLEAR     70  55  60 S6        30.05F
FORT HOOD      CLEAR     72  59  63 SE5       30.08F
GATESVILLE     CLEAR     70  57  64 S6        30.10F
HAMILTON       CLEAR     66  57  73 S9        30.09F
LAMPASAS       CLEAR     71  61  71 CALM      30.08F
$$

TXZ095>097-106>112-122>126-135>138-148>153-164>167-260600-
EAST TEXAS

CITY           SKY/WX    TMP DP  RH WIND       PRES   REMARKS
PARIS          CLEAR     66  57  72 S5        30.05F
SULPHUR SPRNGS CLEAR     72  62  70 S8        30.07F
MOUNT PLEASANT CLEAR     66  65  94 CALM      30.07F
MINEOLA        CLEAR     72  64  78 S3        30.07F
TYLER          CLEAR     67  63  87 S7        30.07F
LONGVIEW       CLEAR     66  62  87 S6        30.06F
MARSHALL       CLEAR     65  63  93 CALM      30.09S
ATHENS         CLEAR     61  61 100 CALM      30.06F
PALESTINE      CLEAR     68  64  84 SE3       30.09S
JACKSONVILLE   CLEAR     69  63  82 S5        30.11S
HENDERSON      CLEAR     63  63 100 CALM      30.09F FOG
NACOGDOCHES    PTCLDY    61  57  88 CALM      30.09F
LUFKIN         CLEAR     64  60  87 E3        30.09S
$$

SUPPLEMENTAL OBSERVATIONS (CENTRAL)

CITY           SKY/WX    TMP DP  RH WIND       PRES   REMARKS
LAKE TEXOMA      N/A     75  61  60 S7          N/A
CADDO GRASSLND   N/A     70  63  78 S7          N/A
PAT MAYSE LAKE   N/A     72  64  78 SE5         N/A
GREENVILLE       N/A    N/A N/A N/A S5          N/A
CEDAR HILL       N/A     73  57  56 S7          N/A
PALESTINE        N/A     66  61  82 S1          N/A
LAKE LIMESTONE   N/A     66  61  82 S2          N/A
MCGREGOR         N/A     66  57  72 SW3         N/A
TEMPLE           N/A    N/A N/A N/A S3          N/A
$$

SUPPLEMENTAL OBSERVATIONS (WEST)

CITY           SKY/WX    TMP DP  RH WIND       PRES   REMARKS
MILLERS CREEK    N/A     72  48  43 S7          N/A
POSSUM KINGDOM   N/A     73  54  49 S9          N/A
LBJ GRASSLAND    N/A     72  57  60 S8          N/A
GRANBURY         N/A     73  57  56 SE7         N/A
COMANCHE         N/A     66  54  63 S8          N/A
HAMBY            N/A     72  52  49 S9          N/A
IVIE RESERVOIR   N/A     66  50  55 S5          N/A
COLORADO BEND    N/A     70  57  64 S6          N/A
$$

SUPPLEMENTAL OBSERVATIONS (EAST)

CITY           SKY/WX    TMP DP  RH WIND       PRES   REMARKS
CLARKSVILLE      N/A     68  63  83 S5          N/A
TEXARKANA        N/A     57  54  88 CALM        N/A
LINDEN           N/A     68  63  83 SW1         N/A
CADDO LAKE       N/A     61  59  94 CALM        N/A
GILMER           N/A     64  59  82 SW2         N/A
HENDERSON        N/A     64  61  88 CALM        N/A
LUFKIN           N/A     61  59  94 MISG        N/A
N SABINE NF      N/A     61  57  88 MISG        N/A
S SABINE NF      N/A     57  54  88 S1          N/A
$$

SUPPLEMENTAL OBSERVATIONS ARE A COLLECTION OF AUTOMATED INSTRUMENTS
THAT ARE MAINTAINED BY A VARIETY OF FEDERAL AND STATE AGENCIES.
CERTAIN ELEMENTS...SUCH AS HUMIDITY VALUES AND SUSTAINED WIND
SPEEDS...MAY BE APPROXIMATED.




USA.gov is the U.S. government's official web portal to all federal, state and local government web resources and services.